• In Romania
  • List of Countries
  • For 7 days
  • Water Temperature
  • Satellite Maps
  • Weather Map
  • Weather Widgets
  • user-avatar
    Login

    Hourly Weather Pogari

    Today, 21 April, Saturday

    Time Temperature Precipitation Wind Pressure Humidity
    00:00 +10°C° 0 mm 3 mps 741 mmHg 79%
    01:00 +10°C° 0 mm 3 mps 741 mmHg 84%
    02:00 +10°C° 0 mm 4 mps 740 mmHg 89%
    03:00 +8°C° 0 mm 4 mps 739 mmHg 89%
    04:00 +8°C° 0 mm 4 mps 738 mmHg 90%
    05:00 +8°C° 0 mm 4 mps 737 mmHg 91%
    06:00 +10°C° 0 mm 4 mps 736 mmHg 85%
    07:00 +10°C° 0 mm 5 mps 735 mmHg 79%
    08:00 +13°C° 0 mm 5 mps 734 mmHg 73%
    09:00 +14°C° 0 mm 6 mps 733 mmHg 69%
    10:00 +15°C° 0 mm 6 mps 732 mmHg 65%
    11:00 +17°C° 0 mm 6 mps 731 mmHg 62%
    12:00 +17°C° 0.5 mm 7 mps 731 mmHg 60%
    13:00 +17°C° 0.5 mm 8 mps 730 mmHg 58%
    14:00 +17°C° 0.5 mm 9 mps 730 mmHg 56%
    15:00 +15°C° 0.1 mm 8 mps 731 mmHg 55%
    16:00 +13°C° 0.1 mm 8 mps 731 mmHg 55%
    17:00 +11°C° 0.1 mm 8 mps 732 mmHg 54%
    18:00 +10°C° 0 mm 7 mps 732 mmHg 58%
    19:00 +9°C° 0 mm 6 mps 733 mmHg 63%
    20:00 +7°C° 0 mm 5 mps 733 mmHg 67%
    21:00 +7°C° 0 mm 5 mps 734 mmHg 68%
    22:00 +7°C° 0 mm 5 mps 734 mmHg 69%
    23:00 +6°C° 0 mm 5 mps 734 mmHg 70%

    Tomorrow, 22 April, Sunday

    Time Temperature Precipitation Wind Pressure Humidity
    00:00 +6°C° 0 mm 5 mps 734 mmHg 71%
    01:00 +6°C° 0 mm 5 mps 735 mmHg 72%
    02:00 +5°C° 0 mm 5 mps 735 mmHg 72%
    03:00 +5°C° 0 mm 5 mps 735 mmHg 74%
    04:00 +5°C° 0 mm 5 mps 735 mmHg 75%
    05:00 +5°C° 0 mm 5 mps 735 mmHg 76%
    06:00 +5°C° 0.1 mm 5 mps 736 mmHg 76%
    07:00 +5°C° 0.1 mm 5 mps 736 mmHg 75%
    08:00 +6°C° 0.1 mm 5 mps 736 mmHg 74%
    09:00 +6°C° 0.2 mm 5 mps 736 mmHg 73%
    10:00 +6°C° 0.2 mm 5 mps 737 mmHg 73%
    11:00 +6°C° 0.2 mm 5 mps 737 mmHg 73%
    12:00 +7°C° 0.1 mm 5 mps 737 mmHg 70%
    13:00 +7°C° 0.1 mm 5 mps 737 mmHg 68%
    14:00 +7°C° 0.1 mm 5 mps 738 mmHg 65%
    15:00 +7°C° 0.1 mm 5 mps 738 mmHg 65%
    16:00 +7°C° 0.1 mm 5 mps 738 mmHg 64%
    17:00 +7°C° 0.1 mm 4 mps 739 mmHg 64%
    18:00 +5°C° 0 mm 3 mps 739 mmHg 69%
    19:00 +4°C° 0 mm 3 mps 740 mmHg 74%
    20:00 +4°C° 0 mm 2 mps 740 mmHg 79%
    21:00 +3°C° 0 mm 2 mps 741 mmHg 81%
    22:00 +2°C° 0 mm 2 mps 741 mmHg 82%
    23:00 +3°C° 0 mm 1 mps 741 mmHg 84%

    Day after tomorrow, 23 April, Monday

    Time Temperature Precipitation Wind Pressure Humidity
    00:00 +2°C° 0 mm 1 mps 742 mmHg 85%
    01:00 +1°C° 0 mm 1 mps 742 mmHg 86%
    02:00 0°C° 0 mm 1 mps 742 mmHg 87%
    03:00 0°C° 0 mm 1 mps 743 mmHg 85%
    04:00 0°C° 0 mm 1 mps 743 mmHg 84%
    05:00 -1°C° 0 mm 1 mps 743 mmHg 82%
    06:00 -1°C° 0 mm 2 mps 744 mmHg 72%
    07:00 +1°C° 0 mm 2 mps 744 mmHg 61%
    08:00 +3°C° 0 mm 2 mps 744 mmHg 50%
    09:00 +5°C° 0 mm 2 mps 745 mmHg 45%
    10:00 +6°C° 0 mm 2 mps 745 mmHg 39%
    11:00 +9°C° 0 mm 1 mps 745 mmHg 34%
    12:00 +9°C° 0 mm 1 mps 744 mmHg 33%
    13:00 +10°C° 0 mm 1 mps 744 mmHg 31%
    14:00 +11°C° 0 mm 1 mps 744 mmHg 30%
    15:00 +11°C° 0 mm 1 mps 744 mmHg 30%
    16:00 +10°C° 0 mm 1 mps 744 mmHg 31%
    17:00 +10°C° 0 mm 1 mps 743 mmHg 32%
    18:00 +8°C° 0 mm 1 mps 743 mmHg 37%
    19:00 +5°C° 0 mm 0 mps 743 mmHg 42%
    20:00 +4°C° 0 mm 0 mps 743 mmHg 48%
    21:00 +4°C° 0 mm 1 mps 743 mmHg 50%
    22:00 +4°C° 0 mm 1 mps 743 mmHg 52%
    23:00 +2°C° 0 mm 2 mps 743 mmHg 54%

    24 April, Tuesday

    Time Temperature Precipitation Wind Pressure Humidity
    00:00 +2°C° 0 mm 2 mps 743 mmHg 55%
    01:00 +2°C° 0 mm 2 mps 742 mmHg 57%
    02:00 +2°C° 0 mm 2 mps 742 mmHg 58%
    03:00 +2°C° 0.1 mm 2 mps 742 mmHg 59%
    04:00 +3°C° 0.1 mm 2 mps 741 mmHg 60%
    05:00 +2°C° 0.1 mm 3 mps 741 mmHg 61%
    06:00 +3°C° 0.2 mm 3 mps 741 mmHg 64%
    07:00 +3°C° 0.2 mm 3 mps 740 mmHg 66%
    08:00 +4°C° 0.2 mm 3 mps 740 mmHg 68%
    09:00 +5°C° 0.2 mm 4 mps 740 mmHg 71%
    10:00 +5°C° 0.2 mm 4 mps 740 mmHg 73%
    11:00 +6°C° 0.2 mm 4 mps 739 mmHg 75%
    12:00 +6°C° 0.2 mm 4 mps 739 mmHg 78%
    13:00 +6°C° 0.2 mm 4 mps 739 mmHg 80%
    14:00 +6°C° 0.2 mm 4 mps 739 mmHg 83%
    15:00 +7°C° 0.2 mm 3 mps 738 mmHg 84%
    16:00 +7°C° 0.2 mm 3 mps 738 mmHg 86%
    17:00 +7°C° 0.2 mm 3 mps 738 mmHg 88%
    18:00 +7°C° 0.1 mm 3 mps 738 mmHg 90%
    19:00 +7°C° 0.1 mm 3 mps 738 mmHg 92%
    20:00 +6°C° 0.1 mm 2 mps 737 mmHg 94%
    21:00 +6°C° 0.1 mm 2 mps 737 mmHg 94%
    22:00 +6°C° 0.1 mm 2 mps 737 mmHg 94%
    23:00 +6°C° 0.1 mm 2 mps 737 mmHg 94%

    25 April, Wednesday

    Time Temperature Precipitation Wind Pressure Humidity
    00:00 +5°C° 0 mm 2 mps 737 mmHg 94%
    01:00 +5°C° 0 mm 2 mps 737 mmHg 95%
    02:00 +4°C° 0 mm 2 mps 737 mmHg 95%
    03:00 +4°C° 0 mm 2 mps 737 mmHg 95%
    04:00 +4°C° 0 mm 2 mps 737 mmHg 96%
    05:00 +2°C° 0 mm 3 mps 736 mmHg 96%
    06:00 +4°C° 0.1 mm 3 mps 736 mmHg 93%
    07:00 +5°C° 0.1 mm 4 mps 736 mmHg 91%
    08:00 +6°C° 0.1 mm 4 mps 735 mmHg 88%
    09:00 +7°C° 0.2 mm 5 mps 735 mmHg 84%
    10:00 +8°C° 0.2 mm 5 mps 735 mmHg 80%
    11:00 +9°C° 0.2 mm 5 mps 735 mmHg 76%
    12:00 +9°C° 0.2 mm 6 mps 735 mmHg 70%
    13:00 +10°C° 0.2 mm 6 mps 735 mmHg 64%
    14:00 +11°C° 0.2 mm 6 mps 735 mmHg 57%
    15:00 +10°C° 0.3 mm 5 mps 735 mmHg 62%
    16:00 +10°C° 0.3 mm 5 mps 734 mmHg 67%
    17:00 +10°C° 0.3 mm 4 mps 734 mmHg 71%
    18:00 +9°C° 0.3 mm 3 mps 734 mmHg 77%
    19:00 +8°C° 0.3 mm 3 mps 734 mmHg 84%
    20:00 +7°C° 0.3 mm 2 mps 734 mmHg 90%
    21:00 +6°C° 0.1 mm 2 mps 734 mmHg 90%
    22:00 +5°C° 0.1 mm 3 mps 735 mmHg 90%
    23:00 +4°C° 0.1 mm 3 mps 735 mmHg 91%

    26 April, Thursday

    Time Temperature Precipitation Wind Pressure Humidity
    00:00 +4°C° 0 mm 3 mps 735 mmHg 91%
    01:00 +3°C° 0 mm 3 mps 735 mmHg 92%
    02:00 +3°C° 0 mm 3 mps 735 mmHg 93%
    03:00 +3°C° 0 mm 2 mps 735 mmHg 94%
    04:00 +3°C° 0 mm 2 mps 735 mmHg 95%
    05:00 +3°C° 0 mm 2 mps 735 mmHg 96%
    06:00 +3°C° 0 mm 3 mps 735 mmHg 90%
    07:00 +4°C° 0 mm 3 mps 735 mmHg 85%
    08:00 +7°C° 0 mm 3 mps 735 mmHg 80%
    09:00 +7°C° 0.1 mm 4 mps 736 mmHg 73%
    10:00 +10°C° 0.1 mm 4 mps 736 mmHg 65%
    11:00 +11°C° 0.1 mm 4 mps 736 mmHg 58%
    12:00 +11°C° 0.3 mm 4 mps 736 mmHg 57%
    13:00 +12°C° 0.3 mm 4 mps 736 mmHg 55%
    14:00 +12°C° 0.3 mm 5 mps 736 mmHg 53%
    15:00 +12°C° 0.3 mm 4 mps 737 mmHg 56%
    16:00 +11°C° 0.3 mm 4 mps 737 mmHg 59%
    17:00 +11°C° 0.3 mm 4 mps 737 mmHg 62%
    18:00 +10°C° 0.1 mm 3 mps 738 mmHg 69%
    19:00 +9°C° 0.1 mm 3 mps 738 mmHg 75%
    20:00 +7°C° 0.1 mm 3 mps 739 mmHg 82%
    21:00 +7°C° 0 mm 3 mps 739 mmHg 84%
    22:00 +5°C° 0 mm 3 mps 739 mmHg 86%
    23:00 +6°C° 0 mm 2 mps 740 mmHg 88%
    Show more